TimeCDT,TemperatureF,Dew PointF,Humidity,Sea Level PressureIn,VisibilityMPH,Wind Direction,Wind SpeedMPH,Gust SpeedMPH,PrecipitationIn,Events,Conditions,WindDirDegrees,DateUTC
1:35 AM,59.0,57.2,94,30.12,7.0,Calm,Calm,-,N/A,,Clear,0,2013-08-19 06:35:00
1:55 AM,57.2,55.4,94,30.12,7.0,Calm,Calm,-,N/A,,Clear,0,2013-08-19 06:55:00
2:15 AM,59.0,57.2,94,30.12,5.0,Calm,Calm,-,N/A,,Clear,0,2013-08-19 07:15:00
2:35 AM,57.2,57.2,100,30.11,7.0,Calm,Calm,-,N/A,,Clear,0,2013-08-19 07:35:00
2:55 AM,57.2,57.2,100,30.12,5.0,Calm,Calm,-,N/A,,Clear,0,2013-08-19 07:55:00
3:15 AM,57.2,57.2,100,30.12,4.0,Calm,Calm,-,N/A,,Clear,0,2013-08-19 08:15:00
3:35 AM,57.2,57.2,100,30.12,4.0,Calm,Calm,-,N/A,,Clear,0,2013-08-19 08:35:00
3:55 AM,57.2,55.4,94,30.12,5.0,Calm,Calm,-,N/A,,Clear,0,2013-08-19 08:55:00
4:15 AM,55.4,55.4,100,30.12,5.0,Calm,Calm,-,N/A,,Clear,0,2013-08-19 09:15:00
4:35 AM,57.2,57.2,100,30.12,4.0,Calm,Calm,-,N/A,,Clear,0,2013-08-19 09:35:00
4:55 AM,55.4,55.4,100,30.12,4.0,Calm,Calm,-,N/A,,Clear,0,2013-08-19 09:55:00
5:15 AM,55.4,55.4,100,30.12,3.0,Calm,Calm,-,N/A,,Clear,0,2013-08-19 10:15:00
5:35 AM,57.2,55.4,94,30.13,1.2,Calm,Calm,-,N/A,,Mist,0,2013-08-19 10:35:00
5:55 AM,57.2,57.2,100,30.13,0.8,Calm,Calm,-,N/A,,Mostly Cloudy,0,2013-08-19 10:55:00
6:15 AM,55.4,55.4,100,30.13,0.2,Calm,Calm,-,N/A,Fog,Fog,0,2013-08-19 11:15:00
6:35 AM,55.4,55.4,100,30.14,0.8,Calm,Calm,-,N/A,,Mostly Cloudy,0,2013-08-19 11:35:00
6:55 AM,57.2,57.2,100,30.14,0.5,Calm,Calm,-,N/A,Fog,Fog,0,2013-08-19 11:55:00
7:15 AM,60.8,59.0,94,30.14,2.0,Calm,Calm,-,N/A,,Mostly Cloudy,0,2013-08-19 12:15:00
7:35 AM,62.6,62.6,100,30.14,3.0,Calm,Calm,-,N/A,,Clear,0,2013-08-19 12:35:00
7:55 AM,64.4,64.4,100,30.14,5.0,Calm,Calm,-,N/A,,Clear,0,2013-08-19 12:55:00
8:15 AM,66.2,64.4,94,30.14,7.0,Calm,Calm,-,N/A,,Clear,0,2013-08-19 13:15:00
8:35 AM,69.8,64.4,83,30.14,10.0,Calm,Calm,-,N/A,,Clear,0,2013-08-19 13:35:00
8:55 AM,71.6,64.4,78,30.14,10.0,Calm,Calm,-,N/A,,Clear,0,2013-08-19 13:55:00
9:15 AM,73.4,64.4,73,30.14,10.0,Calm,Calm,-,N/A,,Clear,0,2013-08-19 14:15:00
9:35 AM,75.2,62.6,65,30.14,10.0,Calm,Calm,-,N/A,,Unknown,0,2013-08-19 14:35:00
9:55 AM,77.0,62.6,61,30.14,10.0,Calm,Calm,-,N/A,,Unknown,0,2013-08-19 14:55:00
10:15 AM,78.8,62.6,57,30.14,10.0,Calm,Calm,-,N/A,,Unknown,0,2013-08-19 15:15:00
10:35 AM,78.8,62.6,57,30.14,10.0,SW,3.5,-,N/A,,Clear,230,2013-08-19 15:35:00
11:35 AM,80.6,64.4,58,30.13,10.0,Calm,Calm,-,N/A,,Clear,0,2013-08-19 16:35:00
11:55 AM,80.6,64.4,58,30.13,10.0,SSW,3.5,-,N/A,,Clear,200,2013-08-19 16:55:00
12:15 PM,80.6,62.6,54,30.13,10.0,Calm,Calm,-,N/A,,Clear,0,2013-08-19 17:15:00
12:35 PM,80.6,62.6,54,30.12,10.0,Calm,Calm,-,N/A,,Clear,0,2013-08-19 17:35:00
12:55 PM,80.6,62.6,54,30.12,10.0,Calm,Calm,-,N/A,,Clear,0,2013-08-19 17:55:00
1:15 PM,82.4,62.6,51,30.12,7.0,West,4.6,-,N/A,,Scattered Clouds,260,2013-08-19 18:15:00
1:35 PM,82.4,64.4,54,30.11,10.0,SW,3.5,-,N/A,,Clear,230,2013-08-19 18:35:00
1:55 PM,82.4,62.6,51,30.11,10.0,Calm,Calm,-,N/A,,Clear,0,2013-08-19 18:55:00
2:15 PM,82.4,62.6,51,30.11,10.0,Calm,Calm,-,N/A,,Clear,0,2013-08-19 19:15:00
2:35 PM,82.4,62.6,51,30.10,10.0,WSW,5.8,-,N/A,,Clear,240,2013-08-19 19:35:00
3:15 PM,84.2,64.4,51,30.09,10.0,SW,5.8,-,N/A,,Clear,220,2013-08-19 20:15:00
3:35 PM,82.4,64.4,54,30.09,10.0,Calm,Calm,-,N/A,,Clear,0,2013-08-19 20:35:00
3:55 PM,82.4,62.6,51,30.09,10.0,WSW,4.6,-,N/A,,Clear,240,2013-08-19 20:55:00
4:15 PM,84.2,62.6,48,30.08,10.0,SW,6.9,-,N/A,,Clear,230,2013-08-19 21:15:00
4:35 PM,84.2,64.4,51,30.07,10.0,WSW,6.9,-,N/A,,Clear,240,2013-08-19 21:35:00
6:15 PM,82.4,64.4,54,30.06,10.0,SW,3.5,-,N/A,,Clear,220,2013-08-19 23:15:00
6:35 PM,80.6,64.4,58,30.05,10.0,SW,4.6,-,N/A,,Clear,230,2013-08-19 23:35:00
6:55 PM,78.8,64.4,61,30.06,10.0,Calm,Calm,-,N/A,,Clear,0,2013-08-19 23:55:00
7:15 PM,78.8,66.2,65,30.06,10.0,Calm,Calm,-,N/A,,Clear,0,2013-08-20 00:15:00
7:35 PM,75.2,68.0,78,30.06,10.0,Calm,Calm,-,N/A,,Clear,0,2013-08-20 00:35:00
7:55 PM,73.4,68.0,83,30.06,10.0,Calm,Calm,-,N/A,,Clear,0,2013-08-20 00:55:00
8:15 PM,71.6,66.2,83,30.07,10.0,Calm,Calm,-,N/A,,Clear,0,2013-08-20 01:15:00
8:35 PM,69.8,66.2,88,30.07,10.0,Calm,Calm,-,N/A,,Scattered Clouds,0,2013-08-20 01:35:00
8:55 PM,69.8,66.2,88,30.07,10.0,Calm,Calm,-,N/A,,Scattered Clouds,0,2013-08-20 01:55:00
9:15 PM,68.0,66.2,94,30.08,7.0,SSE,3.5,-,N/A,,Clear,150,2013-08-20 02:15:00
9:35 PM,66.2,66.2,100,30.08,7.0,SE,4.6,-,N/A,,Clear,140,2013-08-20 02:35:00
9:55 PM,66.2,64.4,94,30.08,7.0,SSE,3.5,-,N/A,,Clear,160,2013-08-20 02:55:00
10:15 PM,66.2,64.4,94,30.08,7.0,Calm,Calm,-,N/A,,Clear,0,2013-08-20 03:15:00
10:35 PM,66.2,64.4,94,30.08,7.0,Calm,Calm,-,N/A,,Clear,0,2013-08-20 03:35:00
10:55 PM,66.2,64.4,94,30.08,7.0,Calm,Calm,-,N/A,,Clear,0,2013-08-20 03:55:00
11:15 PM,64.4,64.4,100,30.08,7.0,Calm,Calm,-,N/A,,Clear,0,2013-08-20 04:15:00
11:35 PM,64.4,64.4,100,30.09,5.0,Calm,Calm,-,N/A,,Clear,0,2013-08-20 04:35:00
11:55 PM,64.4,62.6,94,30.09,5.0,SE,4.6,-,N/A,,Clear,140,2013-08-20 04:55:00